星链-1295 (STARLINK-1295 )

导读 | 星芒AI

STARLINK-1295 是 SpaceX Starlink 项目中的一颗低轨通信卫星,属于第 13 批(V1.5 版本)部署的卫星之一。该卫星于 2021 年 10 月 28 日由猎鹰 9 号火箭发射升空,旨在为全球提供高速互联网服务。它运行在约 550 公里的轨道高度,采用先进的相控阵天线和激光通信技术,以提高网络连接的稳定性和效率。作为 Starlink 卫星群的一部分,STARLINK-1295 支持 SpaceX 打造全球宽带网络的目标。

基本信息
目录编号:
45373
目录名称:
STARLINK-1295
国际标识:
2020-019P
轨道中心:
EARTH
卫星名称:
星链-1295
卫星全名:
星链-1295 (STARLINK-1295 )
卫星状态:
已陨落 最后检测时间 2025-04-20
发射日期:
2020-03-18 UTC
国别 :
美国 (US)
星等 :
--
轨道信息
数据来源 国际轨道数据
星历时间: 2025-04-19T22:43:34+0800
轨道信息已过期240天
半长轴: 6541.302km
偏心率: 0.000496
轨道倾角: 53.034°
近地点辐角 307.590°
升交点赤经 133.440°
平近点角 147.228°
近地点: 159.922km
远地点: 166.412km
周期: 87.752分钟
每日圈数: 16.409922
详细信息
固有亮度:
5
最大亮度:
2.5
卫星平台:
Starlink V1.0
覆盖范围:
全球
运营商:
太空探索技术公司
运营商所在国:
美国
制造商(研发单位):
太空探索技术公司
制造商所在国:
美国
使用方式:
暂无
卫星简介
星链(Starlink)计划是由太空探索技术公司(SpaceX)提出的一个巨型低轨卫星互联网星座项目,计划在2019年至2024年间在太空搭建由约1.2万颗卫星组成的“星链”网络,其中1584颗将部署在地球上空550千米处的近地轨道,并从2020年开始工作。该卫星仍在工作。